{"data":{"norad_id":59549,"intl_designator":"2024-074R","name":"STARLINK-31722","alt_names":[],"object_type":"PAYLOAD","status":"ACTIVE","operator":null,"country":"US","launch_date":"2024-04-18","launch_site_code":"AFETR","launch_vehicle":null,"mission":null,"orbit_class":"UNKNOWN","rcs_meters":null,"size_class":null,"mass_kg":null,"dimensions":null,"purposes":["comms"],"wikipedia_slug":null,"has_3d_model":false,"image_url":null,"decayed_at":null,"tle_current":{"epoch":"2026-09-21T10:06:07.056000Z","epoch_age_seconds":89016,"freshness":"FRESH","line1":"1 59549U 24074R   26264.42091500 -.00001937  00000+0 -60864-4 0  9999","line2":"2 59549  43.0041 317.7291 0001542 270.7347  89.3328 15.27576942135952","mean_motion":15.27576942,"eccentricity":0.0001542,"inclination_deg":43.0041,"raan_deg":317.7291,"arg_perigee_deg":270.7347,"mean_anomaly_deg":89.3328,"bstar":-6.0864e-5,"rev_number":13595,"period_min":94.266937422783,"perigee_km":482.00025649906,"apogee_km":484.11624911502,"semimajor_km":6861.195252807,"source":"CELESTRAK","updated_at":"2026-09-22T09:00:48.974444Z"}}}